| time (UTC) | temp C | wind direction | speed KPH | gust KPH | rain 1hr cm | rain 24hr cm | rain mn cm | humidity % | barometer mb |
| 20260505214132 | 26 | 195 | 4.8 | 12.9 | 0.00 | 0.00 | 0.00 | 36 | 1009.2 |
| 20260505213631 | 26 | 200 | 4.8 | 16.1 | 0.00 | 0.00 | 0.00 | 35 | 1009.1 |
| 20260505213132 | 26 | 165 | 6.4 | 22.5 | 0.00 | 0.00 | 0.00 | 35 | 1009.1 |
| 20260505212620 | 26 | 188 | 8.0 | 22.5 | 0.00 | 0.00 | 0.00 | 35 | 1009.1 |
| 20260505212117 | 26 | 26 | 8.0 | 22.5 | 0.00 | 0.00 | 0.00 | 34 | 1009.0 |
| 20260505211616 | 27 | 163 | 6.4 | 14.5 | 0.00 | 0.00 | 0.00 | 34 | 1009.0 |
| 20260505211115 | 27 | 218 | 6.4 | 20.9 | 0.00 | 0.00 | 0.00 | 34 | 1008.9 |
| 20260505210615 | 27 | 220 | 9.7 | 20.9 | 0.00 | 0.00 | 0.00 | 31 | 1008.9 |
| 20260505210115 | 27 | 186 | 8.0 | 20.9 | 0.00 | 0.00 | 0.00 | 33 | 1009.0 |
| 20260505205857 | 27 | 194 | 8.0 | 22.5 | 0.00 | 0.00 | 0.00 | 34 | 1009.0 |
| 20260505205115 | 27 | 118 | 4.8 | 22.5 | 0.00 | 0.00 | 0.00 | 32 | 1008.9 |
| 20260505204903 | 27 | 249 | 8.0 | 25.7 | 0.00 | 0.00 | 0.00 | 31 | 1008.9 |
| 20260505204115 | 27 | 185 | 4.8 | 27.4 | 0.00 | 0.00 | 0.00 | 33 | 1009.0 |
| 20260505203917 | 27 | 254 | 9.7 | 27.4 | 0.00 | 0.00 | 0.00 | 30 | 1008.9 |
| 20260505203114 | 27 | 193 | 11.3 | 27.4 | 0.00 | 0.00 | 0.00 | 33 | 1009.0 |
| 20260505202616 | 27 | 180 | 8.0 | 24.1 | 0.00 | 0.00 | 0.00 | 31 | 1009.0 |
| 20260505202118 | 27 | 218 | 6.4 | 20.9 | 0.00 | 0.00 | 0.00 | 33 | 1009.1 |
| 20260505201616 | 27 | 260 | 3.2 | 25.7 | 0.00 | 0.00 | 0.00 | 32 | 1008.9 |
| 20260505201113 | 27 | 215 | 8.0 | 25.7 | 0.00 | 0.00 | 0.00 | 31 | 1009.2 |
| 20260505200610 | 27 | 140 | 6.4 | 19.3 | 0.00 | 0.00 | 0.00 | 32 | 1009.2 |
| 20260505200107 | 27 | 184 | 4.8 | 16.1 | 0.00 | 0.00 | 0.00 | 33 | 1009.1 |
| 20260505195605 | 27 | 221 | 6.4 | 17.7 | 0.00 | 0.00 | 0.00 | 32 | 1009.1 |
| 20260505195104 | 27 | 219 | 11.3 | 20.9 | 0.00 | 0.00 | 0.00 | 32 | 1009.3 |
| 20260505194605 | 27 | 192 | 6.4 | 20.9 | 0.00 | 0.00 | 0.00 | 32 | 1009.4 |
| 20260505194104 | 27 | 223 | 6.4 | 20.9 | 0.00 | 0.00 | 0.00 | 34 | 1009.3 |
| 20260505193604 | 27 | 156 | 4.8 | 22.5 | 0.00 | 0.00 | 0.00 | 34 | 1009.4 |
| 20260505193102 | 27 | 209 | 9.7 | 25.7 | 0.00 | 0.00 | 0.00 | 34 | 1009.4 |
| 20260505192846 | 27 | 82 | 9.7 | 25.7 | 0.00 | 0.00 | 0.00 | 34 | 1009.4 |
| 20260505192344 | 27 | 148 | 4.8 | 14.5 | 0.00 | 0.00 | 0.00 | 36 | 1009.5 |
| 20260505191845 | 27 | 183 | 6.4 | 19.3 | 0.00 | 0.00 | 0.00 | 37 | 1009.5 |
| 20260505191126 | 27 | 190 | 8.0 | 19.3 | 0.00 | 0.00 | 0.00 | 37 | 1009.6 |
| 20260505190104 | 27 | 167 | 9.7 | 17.7 | 0.00 | 0.00 | 0.00 | 37 | 1009.7 |
| 20260505185602 | 27 | 232 | 3.2 | 20.9 | 0.00 | 0.00 | 0.00 | 38 | 1009.8 |
| 20260505185347 | 26 | 155 | 9.7 | 25.7 | 0.00 | 0.00 | 0.00 | 37 | 1009.8 |
| 20260505184602 | 26 | 178 | 8.0 | 32.2 | 0.00 | 0.00 | 0.00 | 38 | 1009.9 |
| 20260505184102 | 26 | 243 | 9.7 | 25.7 | 0.00 | 0.00 | 0.00 | 37 | 1010.1 |
| 20260505183603 | 27 | 258 | 8.0 | 25.7 | 0.00 | 0.00 | 0.00 | 37 | 1009.8 |
| 20260505183349 | 27 | 199 | 4.8 | 14.5 | 0.00 | 0.00 | 0.00 | 40 | 1009.9 |
| 20260505182847 | 26 | 242 | 6.4 | 14.5 | 0.00 | 0.00 | 0.00 | 37 | 1009.9 |
| 20260505182103 | 26 | 267 | 8.0 | 24.1 | 0.00 | 0.00 | 0.00 | 38 | 1010.2 |
| 20260505181604 | 26 | 229 | 9.7 | 24.1 | 0.00 | 0.00 | 0.00 | 38 | 1010.3 |
| 20260505181103 | 26 | 128 | 4.8 | 16.1 | 0.00 | 0.00 | 0.00 | 37 | 1010.4 |
| 20260505180848 | 26 | 236 | 3.2 | 16.1 | 0.00 | 0.00 | 0.00 | 38 | 1010.5 |
| 20260505180104 | 26 | 140 | 6.4 | 12.9 | 0.00 | 0.00 | 0.00 | 37 | 1010.7 |
| 20260505175845 | 26 | 236 | 4.8 | 12.9 | 0.00 | 0.00 | 0.00 | 41 | 1010.6 |
| 20260505175104 | 26 | 227 | 6.4 | 19.3 | 0.00 | 0.00 | 0.00 | 39 | 1010.7 |
| 20260505174624 | 26 | 181 | 6.4 | 19.3 | 0.00 | 0.00 | 0.00 | 39 | 1010.7 |
| 20260505173602 | 26 | 213 | 3.2 | 20.9 | 0.00 | 0.00 | 0.00 | 40 | 1010.8 |
| 20260505173105 | 26 | 236 | 9.7 | 20.9 | 0.00 | 0.00 | 0.00 | 38 | 1010.8 |
| 20260505172603 | 26 | 227 | 6.4 | 19.3 | 0.00 | 0.00 | 0.00 | 39 | 1010.8 |
| 20260505172103 | 25 | 156 | 4.8 | 16.1 | 0.00 | 0.00 | 0.00 | 38 | 1010.8 |
| 20260505171604 | 25 | 197 | 8.0 | 22.5 | 0.00 | 0.00 | 0.00 | 40 | 1010.9 |
| 20260505171103 | 25 | 280 | 6.4 | 22.5 | 0.00 | 0.00 | 0.00 | 42 | 1011.0 |
| 20260505170602 | 25 | 155 | 4.8 | 19.3 | 0.00 | 0.00 | 0.00 | 41 | 1011.0 |
| 20260505165604 | 25 | 241 | 8.0 | 19.3 | 0.00 | 0.00 | 0.00 | 41 | 1011.2 |
| 20260505165105 | 25 | 233 | 8.0 | 19.3 | 0.00 | 0.00 | 0.00 | 40 | 1011.3 |
| 20260505164605 | 25 | 242 | 6.4 | 16.1 | 0.00 | 0.00 | 0.00 | 42 | 1011.4 |
| 20260505164105 | 25 | 247 | 6.4 | 16.1 | 0.00 | 0.00 | 0.00 | 42 | 1011.4 |
| 20260505163605 | 25 | 156 | 6.4 | 14.5 | 0.00 | 0.00 | 0.00 | 42 | 1011.5 |
| 20260505163106 | 25 | 196 | 9.7 | 16.1 | 0.00 | 0.00 | 0.00 | 44 | 1011.5 |
| 20260505162605 | 25 | 195 | 4.8 | 16.1 | 0.00 | 0.00 | 0.00 | 46 | 1011.6 |
| 20260505162104 | 25 | 236 | 3.2 | 17.7 | 0.00 | 0.00 | 0.00 | 48 | 1011.6 |
| 20260505161605 | 25 | 215 | 3.2 | 17.7 | 0.00 | 0.00 | 0.00 | 44 | 1011.7 |
| 20260505161105 | 24 | 204 | 6.4 | 14.5 | 0.00 | 0.00 | 0.00 | 46 | 1011.8 |
| 20260505160605 | 24 | 208 | 6.4 | 14.5 | 0.00 | 0.00 | 0.00 | 47 | 1011.9 |
| 20260505160104 | 25 | 236 | 4.8 | 14.5 | 0.00 | 0.00 | 0.00 | 45 | 1011.9 |
| 20260505153103 | 23 | 249 | 1.6 | 9.7 | 0.00 | 0.00 | 0.00 | 49 | 1012.0 |
| 20260505152604 | 23 | 215 | 6.4 | 12.9 | 0.00 | 0.00 | 0.00 | 49 | 1012.1 |
| 20260505152347 | 23 | 181 | 3.2 | 22.5 | 0.00 | 0.00 | 0.00 | 49 | 1012.0 |
| 20260505151603 | 23 | 229 | 3.2 | 22.5 | 0.00 | 0.00 | 0.00 | 50 | 1012.0 |
| 20260505151124 | 23 | 242 | 4.8 | 14.5 | 0.00 | 0.00 | 0.00 | 51 | 1011.9 |
| 20260505150347 | 23 | 177 | 3.2 | 8.0 | 0.00 | 0.00 | 0.00 | 49 | 1011.8 |
| 20260505140601 | 21 | 220 | 3.2 | 6.4 | 0.00 | 0.00 | 0.00 | 55 | 1012.1 |
| 20260505140345 | 21 | 224 | 1.6 | 6.4 | 0.00 | 0.00 | 0.00 | 56 | 1012.1 |
| 20260505124601 | 17 | 215 | 1.6 | 8.0 | 0.00 | 0.00 | 0.00 | 65 | 1012.4 |
| 20260505124101 | 17 | 216 | 3.2 | 8.0 | 0.00 | 0.00 | 0.00 | 65 | 1012.5 |
| 20260505123848 | 17 | 215 | 3.2 | 6.4 | 0.00 | 0.00 | 0.00 | 66 | 1012.5 |
| 20260505123424 | 16 | 215 | 1.6 | 8.0 | 0.00 | 0.00 | 0.00 | 67 | 1012.4 |
| 20260505122605 | 16 | 215 | 4.8 | 8.0 | 0.00 | 0.00 | 0.00 | 67 | 1012.4 |
| 20260505122102 | 16 | 206 | 1.6 | 6.4 | 0.00 | 0.00 | 0.00 | 68 | 1012.5 |
| 20260505121558 | 16 | 206 | 1.6 | 4.8 | 0.00 | 0.00 | 0.00 | 69 | 1012.4 |
| 20260505121057 | 15 | 206 | 0.0 | 4.8 | 0.00 | 0.00 | 0.00 | 69 | 1012.4 |
| 20260505120556 | 15 | 211 | 1.6 | 3.2 | 0.00 | 0.00 | 0.00 | 70 | 1012.3 |
| 20260505120127 | 15 | 211 | 0.0 | 3.2 | 0.00 | 0.00 | 0.00 | 70 | 1012.3 |
| 20260505115053 | 15 | 235 | 0.0 | 3.2 | 0.00 | 0.00 | 0.00 | 71 | 1012.3 |
| 20260505114555 | 14 | 235 | 1.6 | 3.2 | 0.00 | 0.00 | 0.00 | 72 | 1012.2 |
| 20260505114053 | 14 | 235 | 1.6 | 3.2 | 0.00 | 0.00 | 0.00 | 73 | 1012.2 |
| 20260505113836 | 14 | 235 | 0.0 | 4.8 | 0.00 | 0.00 | 0.00 | 74 | 1012.1 |
| 20260505113053 | 13 | 235 | 0.0 | 4.8 | 0.00 | 0.00 | 0.00 | 74 | 1012.2 |
| 20260505112553 | 13 | 235 | 0.0 | 3.2 | 0.00 | 0.00 | 0.00 | 75 | 1012.1 |
| 20260505112051 | 13 | 235 | 0.0 | 3.2 | 0.00 | 0.00 | 0.00 | 76 | 1012.1 |
| 20260505111552 | 13 | 235 | 0.0 | 3.2 | 0.00 | 0.00 | 0.00 | 76 | 1012.1 |
| 20260505111050 | 13 | 235 | 0.0 | 1.6 | 0.00 | 0.00 | 0.00 | 77 | 1012.0 |
| 20260505110551 | 13 | 235 | 0.0 | 3.2 | 0.00 | 0.00 | 0.00 | 77 | 1011.9 |
| 20260505101840 | 11 | 236 | 0.0 | 0.0 | 0.00 | 0.00 | 0.00 | 81 | 1011.5 |
| 20260505101052 | 11 | 236 | 0.0 | 0.0 | 0.00 | 0.00 | 0.00 | 81 | 1011.4 |
| 20260505100551 | 11 | 236 | 0.0 | 0.0 | 0.00 | 0.00 | 0.00 | 81 | 1011.4 |
| 20260505100051 | 12 | 236 | 0.0 | 0.0 | 0.00 | 0.00 | 0.00 | 80 | 1011.4 |
| 20260505095553 | 12 | 236 | 0.0 | 0.0 | 0.00 | 0.00 | 0.00 | 80 | 1011.4 |
| 20260505095051 | 12 | 236 | 0.0 | 0.0 | 0.00 | 0.00 | 0.00 | 80 | 1011.3 |
| 20260505094552 | 12 | 236 | 0.0 | 0.0 | 0.00 | 0.00 | 0.00 | 80 | 1011.3 |
| 20260505094054 | 12 | 236 | 0.0 | 0.0 | 0.00 | 0.00 | 0.00 | 79 | 1011.4 |
| 20260505093554 | 12 | 236 | 0.0 | 0.0 | 0.00 | 0.00 | 0.00 | 79 | 1011.3 |
| 20260505093054 | 12 | 236 | 0.0 | 3.2 | 0.00 | 0.00 | 0.00 | 79 | 1011.3 |
| 20260505092553 | 12 | 236 | 0.0 | 3.2 | 0.00 | 0.00 | 0.00 | 79 | 1011.2 |
| 20260505092053 | 12 | 236 | 0.0 | 3.2 | 0.00 | 0.00 | 0.00 | 79 | 1011.3 |
| 20260505091549 | 12 | 219 | 0.0 | 3.2 | 0.00 | 0.00 | 0.00 | 80 | 1011.2 |
| 20260505091046 | 12 | 236 | 0.0 | 1.6 | 0.00 | 0.00 | 0.00 | 80 | 1011.3 |
| 20260505090537 | 12 | 236 | 0.0 | 0.0 | 0.00 | 0.00 | 0.00 | 80 | 1011.3 |
| 20260505090036 | 12 | 236 | 0.0 | 0.0 | 0.00 | 0.00 | 0.00 | 81 | 1011.2 |
| 20260505085533 | 12 | 236 | 0.0 | 0.0 | 0.00 | 0.00 | 0.00 | 80 | 1011.3 |
| 20260505085031 | 12 | 236 | 0.0 | 0.0 | 0.00 | 0.00 | 0.00 | 80 | 1011.2 |
| 20260505084532 | 12 | 236 | 0.0 | 0.0 | 0.00 | 0.00 | 0.00 | 80 | 1011.3 |
| 20260505084031 | 12 | 236 | 0.0 | 0.0 | 0.00 | 0.00 | 0.00 | 80 | 1011.2 |
| 20260505083531 | 12 | 236 | 0.0 | 0.0 | 0.00 | 0.00 | 0.00 | 80 | 1011.2 |
| 20260505083027 | 12 | 236 | 0.0 | 0.0 | 0.00 | 0.00 | 0.00 | 81 | 1011.2 |
| 20260505082825 | 12 | 236 | 0.0 | 3.2 | 0.00 | 0.00 | 0.00 | 81 | 1011.3 |
| 20260505082308 | 12 | 236 | 0.0 | 3.2 | 0.00 | 0.00 | 0.00 | 81 | 1011.3 |
| 20260505081528 | 12 | 236 | 0.0 | 1.6 | 0.00 | 0.00 | 0.00 | 81 | 1011.3 |
| 20260505081259 | 12 | 236 | 0.0 | 1.6 | 0.00 | 0.00 | 0.00 | 81 | 1011.3 |
| 20260505080758 | 12 | 236 | 0.0 | 0.0 | 0.00 | 0.00 | 0.00 | 81 | 1011.2 |
| 20260505080002 | 12 | 236 | 0.0 | 0.0 | 0.00 | 0.00 | 0.00 | 81 | 1011.1 |
| 20260505075505 | 12 | 236 | 0.0 | 0.0 | 0.00 | 0.00 | 0.00 | 81 | 1010.9 |
| 20260505075005 | 12 | 236 | 0.0 | 0.0 | 0.00 | 0.00 | 0.00 | 82 | 1010.8 |
| 20260505074505 | 12 | 236 | 0.0 | 0.0 | 0.00 | 0.00 | 0.00 | 82 | 1010.8 |
| 20260505074004 | 11 | 236 | 0.0 | 0.0 | 0.00 | 0.00 | 0.00 | 82 | 1010.9 |
| 20260505073503 | 11 | 236 | 0.0 | 0.0 | 0.00 | 0.00 | 0.00 | 83 | 1010.8 |
| 20260505073035 | 11 | 236 | 0.0 | 0.0 | 0.00 | 0.00 | 0.00 | 83 | 1010.9 |
| 20260505072258 | 11 | 236 | 0.0 | 0.0 | 0.00 | 0.00 | 0.00 | 84 | 1010.7 |
| 20260505071005 | 11 | 236 | 0.0 | 0.0 | 0.00 | 0.00 | 0.00 | 84 | 1010.7 |
| 20260505070743 | 11 | 236 | 0.0 | 0.0 | 0.00 | 0.00 | 0.00 | 84 | 1010.8 |
| 20260505070004 | 11 | 236 | 0.0 | 0.0 | 0.00 | 0.00 | 0.00 | 83 | 1010.7 |
| 20260505065503 | 11 | 236 | 0.0 | 0.0 | 0.00 | 0.00 | 0.00 | 83 | 1010.7 |
| 20260505065245 | 11 | 236 | 0.0 | 0.0 | 0.00 | 0.00 | 0.00 | 82 | 1010.8 |
| 20260505064744 | 11 | 236 | 0.0 | 0.0 | 0.00 | 0.00 | 0.00 | 82 | 1010.8 |
| 20260505064001 | 11 | 236 | 0.0 | 0.0 | 0.00 | 0.00 | 0.00 | 82 | 1010.9 |
| 20260505063502 | 11 | 236 | 0.0 | 0.0 | 0.00 | 0.00 | 0.00 | 81 | 1010.9 |
| 20260505062956 | 11 | 236 | 0.0 | 0.0 | 0.00 | 0.00 | 0.00 | 81 | 1010.9 |
| 20260505062452 | 11 | 236 | 0.0 | 0.0 | 0.00 | 0.00 | 0.00 | 81 | 1011.0 |
| 20260505061952 | 11 | 236 | 0.0 | 0.0 | 0.00 | 0.00 | 0.00 | 80 | 1011.0 |
| 20260505061451 | 12 | 236 | 0.0 | 0.0 | 0.00 | 0.00 | 0.00 | 80 | 1011.0 |
| 20260505060950 | 12 | 236 | 0.0 | 0.0 | 0.00 | 0.00 | 0.00 | 79 | 1011.0 |
| 20260505060733 | 12 | 236 | 0.0 | 0.0 | 0.00 | 0.00 | 0.00 | 79 | 1010.9 |
| 20260505055952 | 12 | 236 | 0.0 | 0.0 | 0.00 | 0.00 | 0.00 | 79 | 1010.9 |
| 20260505055442 | 12 | 236 | 0.0 | 0.0 | 0.00 | 0.00 | 0.00 | 78 | 1010.9 |
| 20260505054939 | 12 | 236 | 0.0 | 0.0 | 0.00 | 0.00 | 0.00 | 78 | 1010.9 |
| 20260505054439 | 13 | 236 | 0.0 | 0.0 | 0.00 | 0.00 | 0.00 | 77 | 1010.9 |
| 20260505053939 | 13 | 236 | 0.0 | 0.0 | 0.00 | 0.00 | 0.00 | 76 | 1010.9 |
| 20260505053438 | 13 | 236 | 0.0 | 0.0 | 0.00 | 0.00 | 0.00 | 76 | 1010.9 |
| 20260505052934 | 13 | 236 | 0.0 | 0.0 | 0.00 | 0.00 | 0.00 | 75 | 1011.0 |
| 20260505052430 | 13 | 236 | 0.0 | 0.0 | 0.00 | 0.00 | 0.00 | 74 | 1011.0 |
| 20260505051930 | 14 | 236 | 0.0 | 0.0 | 0.00 | 0.00 | 0.00 | 74 | 1011.0 |
| 20260505051429 | 14 | 236 | 0.0 | 0.0 | 0.00 | 0.00 | 0.00 | 73 | 1011.0 |
| 20260505050930 | 14 | 236 | 0.0 | 0.0 | 0.00 | 0.00 | 0.00 | 73 | 1011.1 |
| 20260505050710 | 14 | 236 | 0.0 | 0.0 | 0.00 | 0.00 | 0.00 | 73 | 1011.1 |
| 20260505041431 | 14 | 236 | 0.0 | 3.2 | 0.00 | 0.00 | 0.00 | 72 | 1011.0 |
| 20260505041210 | 14 | 236 | 0.0 | 0.0 | 0.00 | 0.00 | 0.00 | 72 | 1010.9 |
| 20260505040710 | 14 | 236 | 0.0 | 0.0 | 0.00 | 0.00 | 0.00 | 71 | 1011.0 |
| 20260505035931 | 15 | 236 | 0.0 | 0.0 | 0.00 | 0.00 | 0.00 | 71 | 1010.9 |
| 20260505035432 | 15 | 236 | 0.0 | 0.0 | 0.00 | 0.00 | 0.00 | 68 | 1010.9 |
| 20260505034932 | 15 | 236 | 0.0 | 0.0 | 0.00 | 0.00 | 0.00 | 68 | 1010.7 |
| 20260505034432 | 16 | 236 | 0.0 | 0.0 | 0.00 | 0.00 | 0.00 | 67 | 1010.7 |
| 20260505034213 | 16 | 236 | 0.0 | 0.0 | 0.00 | 0.00 | 0.00 | 66 | 1010.8 |
| 20260505033432 | 16 | 236 | 0.0 | 0.0 | 0.00 | 0.00 | 0.00 | 65 | 1010.8 |
| 20260505032931 | 16 | 236 | 0.0 | 0.0 | 0.00 | 0.00 | 0.00 | 63 | 1010.9 |
| 20260505032431 | 17 | 236 | 0.0 | 3.2 | 0.00 | 0.00 | 0.00 | 62 | 1010.9 |
| 20260505031931 | 17 | 236 | 0.0 | 3.2 | 0.00 | 0.00 | 0.00 | 61 | 1010.9 |
| 20260505031431 | 17 | 236 | 0.0 | 3.2 | 0.00 | 0.00 | 0.00 | 60 | 1011.0 |
| 20260505030931 | 17 | 236 | 0.0 | 0.0 | 0.00 | 0.00 | 0.00 | 60 | 1011.0 |
| 20260505030432 | 17 | 236 | 0.0 | 0.0 | 0.00 | 0.00 | 0.00 | 59 | 1010.9 |
| 20260505025930 | 17 | 236 | 0.0 | 0.0 | 0.00 | 0.00 | 0.00 | 59 | 1010.9 |
| 20260505025428 | 17 | 236 | 0.0 | 3.2 | 0.00 | 0.00 | 0.00 | 58 | 1010.8 |
| 20260505024929 | 18 | 236 | 0.0 | 3.2 | 0.00 | 0.00 | 0.00 | 57 | 1010.9 |
| 20260505024430 | 18 | 236 | 0.0 | 3.2 | 0.00 | 0.00 | 0.00 | 57 | 1010.8 |
| 20260505023929 | 18 | 236 | 0.0 | 3.2 | 0.00 | 0.00 | 0.00 | 56 | 1010.9 |
| 20260505023429 | 18 | 236 | 0.0 | 1.6 | 0.00 | 0.00 | 0.00 | 56 | 1010.9 |
| 20260505022929 | 18 | 236 | 0.0 | 1.6 | 0.00 | 0.00 | 0.00 | 55 | 1010.9 |
| 20260505022429 | 18 | 236 | 0.0 | 4.8 | 0.00 | 0.00 | 0.00 | 55 | 1010.9 |
| 20260505021929 | 18 | 236 | 0.0 | 4.8 | 0.00 | 0.00 | 0.00 | 54 | 1010.9 |
| 20260505021430 | 18 | 236 | 0.0 | 3.2 | 0.00 | 0.00 | 0.00 | 55 | 1010.8 |
| 20260505020929 | 19 | 236 | 0.0 | 3.2 | 0.00 | 0.00 | 0.00 | 54 | 1010.7 |
| 20260505020428 | 18 | 236 | 0.0 | 3.2 | 0.00 | 0.00 | 0.00 | 54 | 1010.7 |
| 20260505015930 | 18 | 236 | 0.0 | 3.2 | 0.00 | 0.00 | 0.00 | 55 | 1010.6 |
| 20260505015710 | 18 | 236 | 0.0 | 3.2 | 0.00 | 0.00 | 0.00 | 54 | 1010.6 |
| 20260505014927 | 19 | 236 | 0.0 | 3.2 | 0.00 | 0.00 | 0.00 | 53 | 1010.5 |
| 20260505014419 | 19 | 236 | 0.0 | 3.2 | 0.00 | 0.00 | 0.00 | 53 | 1010.4 |
| 20260505013914 | 19 | 236 | 0.0 | 3.2 | 0.00 | 0.00 | 0.00 | 52 | 1010.5 |
| 20260505013656 | 19 | 236 | 0.0 | 3.2 | 0.00 | 0.00 | 0.00 | 52 | 1010.5 |
| 20260505012908 | 20 | 236 | 0.0 | 3.2 | 0.00 | 0.00 | 0.00 | 51 | 1010.4 |
| 20260505012405 | 20 | 236 | 0.0 | 4.8 | 0.00 | 0.00 | 0.00 | 51 | 1010.3 |
| 20260505011905 | 20 | 236 | 0.0 | 4.8 | 0.00 | 0.00 | 0.00 | 51 | 1010.3 |
| 20260505011405 | 20 | 236 | 0.0 | 3.2 | 0.00 | 0.00 | 0.00 | 50 | 1010.1 |
| 20260505010905 | 20 | 236 | 0.0 | 3.2 | 0.00 | 0.00 | 0.00 | 50 | 1010.1 |
| 20260505010405 | 20 | 236 | 0.0 | 3.2 | 0.00 | 0.00 | 0.00 | 49 | 1009.8 |
| 20260505005905 | 20 | 236 | 0.0 | 6.4 | 0.00 | 0.00 | 0.00 | 49 | 1009.9 |
| 20260505005406 | 20 | 236 | 0.0 | 6.4 | 0.00 | 0.00 | 0.00 | 49 | 1010.1 |
| 20260505004905 | 20 | 234 | 1.6 | 6.4 | 0.00 | 0.00 | 0.00 | 48 | 1009.9 |
| 20260505004406 | 20 | 234 | 1.6 | 6.4 | 0.00 | 0.00 | 0.00 | 48 | 1009.9 |
| 20260505004146 | 20 | 234 | 1.6 | 4.8 | 0.00 | 0.00 | 0.00 | 48 | 1009.7 |
| 20260505003405 | 21 | 234 | 1.6 | 4.8 | 0.00 | 0.00 | 0.00 | 47 | 1009.7 |
| 20260505002903 | 21 | 184 | 0.0 | 6.4 | 0.00 | 0.00 | 0.00 | 46 | 1009.8 |
| 20260505002405 | 21 | 184 | 3.2 | 6.4 | 0.00 | 0.00 | 0.00 | 46 | 1009.8 |
| 20260505001903 | 21 | 184 | 1.6 | 6.4 | 0.00 | 0.00 | 0.00 | 46 | 1009.7 |
| 20260505001645 | 21 | 184 | 1.6 | 3.2 | 0.00 | 0.00 | 0.00 | 45 | 1009.7 |
| 20260505000904 | 21 | 184 | 0.0 | 6.4 | 0.00 | 0.00 | 0.00 | 45 | 1009.6 |
| 20260505000405 | 21 | 184 | 1.6 | 8.0 | 0.00 | 0.00 | 0.00 | 45 | 1009.7 |
| 20260504235903 | 21 | 184 | 1.6 | 8.0 | 0.00 | 0.00 | 0.00 | 45 | 1009.7 |
| 20260504235404 | 21 | 210 | 1.6 | 6.4 | 0.00 | 0.00 | 0.00 | 45 | 1009.7 |
| 20260504234903 | 21 | 210 | 0.0 | 3.2 | 0.00 | 0.00 | 0.00 | 44 | 1009.6 |
| 20260504234404 | 21 | 210 | 1.6 | 6.4 | 0.00 | 0.00 | 0.00 | 44 | 1009.5 |
| 20260504233903 | 21 | 210 | 1.6 | 6.4 | 0.00 | 0.00 | 0.00 | 44 | 1009.5 |
| 20260504233404 | 21 | 241 | 3.2 | 8.0 | 0.00 | 0.00 | 0.00 | 43 | 1009.5 |
| 20260504232902 | 22 | 217 | 1.6 | 8.0 | 0.00 | 0.00 | 0.00 | 43 | 1009.4 |
| 20260504232402 | 22 | 217 | 1.6 | 9.7 | 0.00 | 0.00 | 0.00 | 43 | 1009.4 |
| 20260504232201 | 22 | 216 | 3.2 | 16.1 | 0.00 | 0.00 | 0.00 | 42 | 1009.5 |
| 20260504231645 | 22 | 203 | 3.2 | 16.1 | 0.00 | 0.00 | 0.00 | 43 | 1009.4 |
| 20260504230901 | 22 | 165 | 3.2 | 14.5 | 0.00 | 0.00 | 0.00 | 41 | 1009.4 |
| 20260504230401 | 22 | 257 | 4.8 | 9.7 | 0.00 | 0.00 | 0.00 | 41 | 1009.4 |
| 20260504225901 | 22 | 187 | 1.6 | 9.7 | 0.00 | 0.00 | 0.00 | 42 | 1009.4 |
| 20260504225401 | 22 | 139 | 3.2 | 9.7 | 0.00 | 0.00 | 0.00 | 41 | 1009.4 |
| 20260504224901 | 22 | 160 | 3.2 | 14.5 | 0.00 | 0.00 | 0.00 | 41 | 1009.4 |
| 20260504224401 | 22 | 225 | 9.7 | 14.5 | 0.00 | 0.00 | 0.00 | 39 | 1009.4 |
| 20260504223901 | 23 | 139 | 8.0 | 20.9 | 0.00 | 0.00 | 0.00 | 39 | 1009.3 |
| 20260504223402 | 23 | 128 | 8.0 | 20.9 | 0.00 | 0.00 | 0.00 | 39 | 1009.3 |
| 20260504222901 | 23 | 202 | 1.6 | 11.3 | 0.00 | 0.00 | 0.00 | 39 | 1009.3 |
| 20260504222402 | 23 | 229 | 4.8 | 11.3 | 0.00 | 0.00 | 0.00 | 39 | 1009.4 |
| 20260504222200 | 23 | 223 | 3.2 | 9.7 | 0.00 | 0.00 | 0.00 | 40 | 1009.3 |
| 20260504221646 | 23 | 207 | 1.6 | 11.3 | 0.00 | 0.00 | 0.00 | 39 | 1009.3 |
| 20260504220900 | 23 | 230 | 3.2 | 11.3 | 0.00 | 0.00 | 0.00 | 40 | 1009.2 |
| 20260504220404 | 23 | 126 | 1.6 | 9.7 | 0.00 | 0.00 | 0.00 | 38 | 1009.2 |
| 20260504220147 | 23 | 180 | 3.2 | 8.0 | 0.00 | 0.00 | 0.00 | 39 | 1009.2 |
| 20260504215403 | 23 | 229 | 3.2 | 11.3 | 0.00 | 0.00 | 0.00 | 38 | 1009.2 |
| 20260504214904 | 23 | 224 | 4.8 | 11.3 | 0.00 | 0.00 | 0.00 | 39 | 1009.3 |